Temperature
19 19 19 19 19 19 19 19 19 19 19 19 19 19 19 19 19 19 19 19 18 18 18 18 18 18 18 19 19 19 19 19 19 19 19 19 19 19 18 18 18 18 18
19 19 19 19 19 19 19 19 19 19 19 19 19 19 19 19 19 19 19 19 19 18 19 18 19 18 19 19 19 19 19 19 19 19 19 19 19 18 18 18 18 18 18
20 20 19 19 19 19 19 19 19 19 19 19 19 19 19 19 19 18 19 18 18 18 18 19 19 19 19 19 19 19 19 19 19 18 18 18 18 18 18 18 18 18 18
20 19 19 19 19 19 19 19 19 19 19 19 19 18 19 19 18 18 18 18 18 18 18 18 19 18 19 19 19 19 19 19 19 18 18 18 18 18 18 18 18 18 18
20 19 20 19 19 19 19 19 19 19 19 19 19 19 19 19 18 18 18 18 18 18 18 18 18 18 18 19 19 19 19 19 18 18 18 18 18 18 18 18 18 18 18
20 20 20 19 19 19 19 19 19 19 19 19 19 19 19 19 19 19 18 18 18 18 18 18 18 18 18 18 19 19 19 18 18 18 18 18 18 18 18 18 18 18 18
20 20 20 20 19 19 19 19 19 19 19 19 19 19 19 19 19 19 18 18 18 18 18 18 18 18 18 19 19 19 19 19 18 18 18 18 18 18 18 18 18 18 18
20 20 20 20 20 19 19 19 19 19 19 19 19 19 19 19 19 19 19 19 19 18 18 18 18 18 19 19 19 19 19 19 18 18 18 18 18 18 18 18 18 18 18
20 20 20 20 20 20 19 19 19 19 19 19 19 19 19 19 19 19 19 19 19 19 19 19 19 19 19 19 19 19 19 19 19 18 18 18 18 18 18 18 18 18 18
21 20 20 20 20 20 20 20 19 19 19 19 19 19 19 19 19 19 19 19 19 19 19 19 19 19 19 19 19 19 19 19 19 19 19 19 19 19 18 18 18 18 18
21 20 20 20 20 19 19 20 19 19 19 19 19 19 19 19 19 19 19 19 19 19 19 19 19 19 19 19 19 19 19 19 19 19 19 19 19 19 18 18 18 18 18
21 21 20 20 20 20 19 19 19 19 19 19 19 19 19 19 19 19 19 19 19 19 19 19 19 19 19 19 19 19 19 19 19 19 19 19 19 19 18 18 18 18 18
22 21 21 20 20 20 20 19 19 19 19 19 19 19 19 19 19 19 19 19 19 19 19 19 19 19 19 19 19 19 19 19 19 19 19 19 19 19 19 18 18 18 18
22 22 21 21 20 20 20 20 19 19 19 19 19 19 19 19 19 19 19 19 19 19 19 19 19 19 19 19 19 19 19 19 19 19 19 19 19 19 19 18 18 18 18
22 21 21 21 20 20 20 20 20 20 20 20 20 19 19 19 19 19 19 19 19 19 19 19 19 19 19 19 19 19 19 19 19 19 19 19 19 19 19 19 18 18 18
22 21 21 21 20 20 20 20 20 20 20 20 20 19 19 19 19 19 19 19 19 19 19 19 19 19 19 19 19 19 19 19 19 19 19 19 19 19 19 19 19 18 18
22 21 21 21 20 20 20 20 20 20 20 20 19 19 19 19 19 19 19 19 19 19 19 19 19 19 19 19 19 19 19 19 19 19 19 19 19 19 19 19 18 18 18
22 21 21 21 20 20 20 20 20 20 20 20 19 19 19 19 19 19 19 19 19 19 19 19 19 19 19 19 19 19 19 19 19 19 19 19 19 18 18 18 18 18 18
22 21 21 21 20 20 20 20 20 20 20 20 19 19 19 19 19 19 19 19 19 19 19 19 19 19 19 19 19 19 19 19 19 19 19 19 19 18 18 18 18 18 18
22 21 21 20 20 20 20 20 20 20 20 19 19 19 19 19 19 19 19 19 19 19 19 19 19 19 19 19 19 19 19 19 19 19 19 19 19 19 18 18 18 18 18
22 21 21 20 20 20 20 20 20 20 19 19 19 19 19 19 19 19 19 19 19 19 19 19 19 19 19 19 19 19 19 19 19 19 19 19 19 19 19 18 18 18 18
22 21 21 21 20 20 20 20 20 20 20 19 19 19 19 19 19 19 19 19 19 19 19 19 19 19 19 19 19 19 19 19 19 19 19 19 19 19 19 18 18 18 18
22 22 21 21 20 20 20 20 20 20 20 20 19 19 19 19 19 19 19 19 19 19 19 19 19 18 19 19 19 19 19 19 19 19 19 19 19 19 19 19 18 18 18
23 22 21 21 20 20 20 20 20 19 19 19 19 19 19 19 19 19 19 19 19 19 19 18 18 18 18 19 19 19 19 19 19 19 19 19 19 19 19 19 19 18 18
23 22 22 21 21 20 20 20 20 20 20 19 19 19 19 19 19 19 19 19 19 18 19 18 18 18 18 18 19 19 19 19 19 18 18 19 19 19 19 19 18 18 18
23 22 22 21 21 20 20 20 20 20 20 19 19 19 19 19 19 19 19 19 19 18 18 18 18 18 18 18 18 18 18 18 19 19 18 18 18 19 19 19 18 18 18
Wind_Speed
9 10 12 13 14 14 14 14 15 15 15 14 14 13 13 13 13 12 12 12 12 11 10 10 9 8 8 8 8 8 8 8 9 9 10 10 10 10 9 9 10 11 13
11 12 14 14 14 15 15 14 14 14 14 14 14 14 13 13 12 11 11 11 11 10 10 9 8 8 8 7 7 7 7 6 7 7 8 8 8 8 8 9 10 11 13
13 13 14 14 14 14 15 14 14 14 14 13 13 13 13 12 11 11 10 10 10 10 9 9 8 7 7 7 7 6 5 5 5 6 6 6 7 8 9 11 12 11 11
14 14 14 14 13 14 14 14 14 14 13 13 13 12 12 11 11 10 9 9 9 9 9 8 8 7 7 6 6 5 4 4 4 4 4 5 8 10 11 11 11 10 10
15 15 15 14 13 13 14 14 14 13 13 13 12 11 11 10 10 9 9 8 8 8 8 8 7 7 6 6 5 4 3 3 3 4 2 7 9 11 11 11 10 10 9
16 16 15 14 14 14 14 13 13 13 12 12 11 10 10 9 9 8 8 8 8 7 7 7 6 6 5 4 3 3 2 3 5 3 4 8 9 11 11 10 10 9 9
16 16 15 15 15 15 14 13 13 12 12 12 11 9 8 8 8 8 8 7 7 7 6 6 5 5 4 3 3 3 4 5 8 2 5 7 10 12 11 10 10 9 9
15 15 16 16 15 15 14 12 12 11 10 10 9 9 7 7 7 7 7 7 7 6 6 5 4 4 3 3 4 4 5 7 5 2 6 8 12 13 11 11 10 9 8
14 14 14 15 14 14 13 12 12 11 9 9 8 8 7 7 7 6 6 6 6 6 5 5 5 4 4 4 6 6 7 7 7 2 5 8 13 12 11 10 10 9 8
11 12 13 14 14 14 12 12 11 10 9 8 8 8 7 7 8 9 8 8 7 7 6 6 6 6 6 6 7 8 8 8 7 2 5 9 13 12 11 10 9 9 8
10 9 11 12 11 12 13 13 12 11 10 9 8 9 9 8 7 8 9 10 9 8 8 8 7 7 7 9 10 11 9 7 5 3 6 11 13 12 10 9 9 9 8
10 10 9 10 10 10 9 11 10 10 10 9 8 8 8 7 6 6 9 11 11 10 9 10 10 9 9 8 10 12 8 8 4 4 8 14 13 11 10 9 9 9 9
10 9 10 9 7 7 6 7 5 5 8 8 8 7 6 5 5 6 6 7 9 10 8 8 9 9 8 6 5 6 7 5 3 5 10 14 13 11 10 9 8 8 9
10 9 9 9 7 5 4 4 4 3 4 4 6 5 3 2 1 3 3 4 5 6 6 6 5 6 6 5 4 3 3 2 2 5 10 13 12 11 10 9 9 8 8
10 9 9 8 7 5 3 1 3 2 2 4 5 4 3 2 1 1 1 2 3 4 4 3 3 2 2 3 3 2 1 1 3 4 7 12 12 11 11 10 10 9 9
9 8 8 8 7 5 3 2 1 2 2 3 4 5 3 2 1 1 1 1 1 2 3 4 3 2 2 2 2 2 2 1 4 6 7 9 12 12 11 11 10 10 10
8 7 7 8 8 5 4 4 3 3 3 2 3 5 3 2 2 2 2 2 1 2 3 3 2 2 3 2 2 2 2 2 3 5 7 7 9 11 12 11 11 10 9
9 7 6 7 9 6 3 3 2 1 2 1 3 4 3 2 3 2 2 2 2 3 2 2 2 2 1 1 2 2 1 2 3 4 5 7 8 8 11 13 12 11 10
9 8 5 4 6 6 4 3 2 1 1 1 2 3 3 2 2 2 1 1 3 2 1 1 1 1 1 1 2 2 2 2 3 3 4 6 8 8 9 12 13 12 10
10 9 7 5 5 5 4 3 2 1 1 1 2 2 3 3 3 2 2 3 2 1 1 1 0 1 1 2 3 2 2 2 2 2 3 4 6 7 8 10 10 10 10
11 10 8 7 6 4 4 3 2 2 2 1 2 3 3 2 3 2 2 2 2 1 1 1 1 2 2 1 1 1 1 2 2 3 2 2 3 4 7 9 8 8 8
12 10 9 8 7 6 4 3 2 2 3 2 1 3 3 2 2 3 2 2 2 1 2 1 1 1 2 2 1 1 0 1 2 3 2 3 3 2 3 6 7 8 8
12 11 10 9 8 7 5 4 3 2 2 2 2 2 2 2 3 1 2 2 2 2 2 2 2 3 2 1 1 1 1 1 1 1 2 1 2 2 2 3 5 6 7
13 12 9 8 7 7 6 5 5 4 3 2 2 2 3 2 2 2 1 1 1 1 1 2 2 2 2 2 1 1 1 1 1 1 2 1 2 2 2 2 3 4 5
12 12 10 9 7 7 6 6 5 4 3 2 2 3 3 3 2 2 2 2 2 1 1 1 1 1 1 2 2 1 1 1 2 2 2 2 1 2 2 2 3 4 5
10 10 10 9 8 7 7 6 6 4 4 3 3 3 3 3 3 3 3 2 2 1 1 2 2 2 2 2 2 2 1 1 2 2 2 2 2 2 2 2 2 2 4
Wind_Direction
100 106 109 108 107 111 113 112 112 112 114 115 113 110 109 109 108 107 106 107 107 108 110 110 109 104 102 95 92 89 88 89 91 94 97 98 101 102 103 109 111 108 112
108 108 109 107 107 109 110 110 112 113 115 115 113 112 110 110 111 112 110 109 108 108 110 113 112 109 107 103 102 101 101 103 108 112 113 109 111 112 108 101 102 110 115
108 110 110 107 107 108 112 111 110 111 113 112 111 111 109 108 110 115 114 113 112 112 113 113 113 112 112 111 111 113 120 129 137 145 145 130 123 125 116 109 111 116 120
113 112 108 109 110 112 114 112 111 112 112 112 111 112 113 113 112 111 113 116 116 116 115 114 114 116 117 120 124 130 142 157 178 195 194 138 125 128 126 121 119 123 126
109 107 108 109 113 119 118 116 115 115 116 116 116 116 115 116 115 114 114 117 118 117 117 117 118 123 124 126 133 149 175 211 237 242 177 113 112 129 131 130 130 132 134
112 111 111 109 112 119 121 121 119 119 118 118 118 118 117 118 119 120 120 122 124 126 127 124 123 122 125 133 153 184 222 253 270 248 135 121 123 134 136 138 139 140 140
114 113 117 114 112 115 117 120 122 120 120 120 121 121 123 126 127 128 127 129 131 132 131 130 131 133 138 152 188 228 254 269 268 267 109 113 128 140 145 146 142 143 145
117 118 122 122 122 120 121 121 122 123 124 127 131 133 136 139 140 142 143 142 141 140 140 143 148 159 173 192 218 240 256 275 269 186 130 123 134 139 146 150 148 149 152
122 126 131 133 132 130 130 129 128 131 135 138 144 150 150 152 156 158 164 161 158 155 157 164 173 187 200 215 229 242 257 273 281 211 139 130 140 143 149 152 155 159 160
123 128 136 137 140 141 140 141 141 143 148 155 159 165 169 176 181 180 180 176 173 172 179 186 194 206 220 232 240 248 255 269 261 202 140 145 149 153 157 159 163 169 172
124 133 136 139 145 144 145 147 155 155 164 174 179 184 188 194 192 187 182 175 179 184 191 196 206 220 229 236 241 246 252 250 241 162 140 148 153 157 162 168 173 178 184
135 137 138 139 142 146 142 146 167 166 170 185 180 180 193 200 199 175 164 177 184 191 198 204 213 224 232 230 230 233 237 233 222 158 142 153 157 162 168 173 176 185 190
145 145 141 136 135 137 133 148 163 161 165 178 175 179 191 189 170 154 160 176 189 197 203 200 210 223 227 231 230 215 224 231 171 135 145 153 158 165 172 175 181 188 196
145 144 139 138 133 126 122 135 160 170 162 159 161 178 171 175 183 157 167 175 191 195 198 201 214 223 231 230 235 225 239 224 125 129 153 158 161 166 171 175 181 186 193
139 140 134 124 118 114 111 171 159 155 148 156 162 171 182 178 143 132 148 171 193 184 185 211 229 228 247 246 236 217 237 179 131 154 151 163 168 172 174 179 186 193 197
134 135 129 132 132 137 158 206 186 172 163 166 155 149 171 139 125 147 193 235 221 187 188 207 220 218 231 237 247 213 190 186 154 164 161 169 177 178 180 184 189 196 201
138 135 137 149 145 160 178 196 190 189 160 150 140 139 158 149 147 200 186 207 218 205 203 201 214 210 225 228 226 224 196 180 174 165 166 169 176 185 189 192 195 199 203
143 143 166 162 149 160 183 198 204 181 127 147 138 138 155 168 180 205 197 182 206 209 194 193 191 213 219 239 248 243 208 177 191 185 177 176 179 184 193 197 197 200 205
145 148 164 151 148 160 177 201 207 152 143 166 129 132 148 172 175 195 221 176 215 199 195 219 153 203 220 232 243 221 214 192 201 192 181 178 179 180 181 190 194 198 202
152 156 165 160 154 165 175 209 195 158 189 179 135 141 163 178 182 193 193 205 221 168 156 107 139 239 228 243 255 227 216 194 206 207 205 183 179 181 177 174 182 193 199
160 162 168 172 168 178 184 201 186 174 198 180 165 161 154 179 189 197 209 205 218 173 161 168 208 240 235 235 274 300 236 216 201 208 210 178 180 171 162 166 169 176 183
166 169 170 175 179 195 192 195 191 193 202 176 183 145 143 179 196 192 194 215 205 170 169 197 200 274 268 218 204 207 231 289 282 212 201 197 188 158 152 165 167 167 168
169 173 180 180 182 196 193 195 197 189 213 180 165 156 161 184 184 228 176 212 216 193 177 193 210 228 247 254 205 210 195 222 281 263 239 198 174 167 165 164 161 160 167
173 174 171 170 178 183 188 194 199 202 213 195 177 162 177 185 188 198 182 229 231 231 185 217 205 248 255 262 255 216 187 179 216 274 271 233 219 188 195 195 153 151 165
174 172 168 167 173 177 188 195 209 207 204 199 180 185 196 189 185 193 176 220 232 216 219 233 251 266 267 271 269 261 233 234 245 232 254 251 246 214 203 196 164 159 166
168 166 164 163 171 178 188 195 203 210 204 199 196 195 210 201 195 196 189 201 219 223 234 212 236 242 262 293 299 285 256 229 246 229 236 240 238 231 204 194 177 172 169
Height
1504 1503 1504 1505 1506 1507 1508 1510 1512 1514 1516 1518 1520 1522 1524 1526 1527 1529 1531 1532 1533 1535 1536 1537 1539 1540 1541 1542 1543 1544 1545 1546 1547 1548 1549 1550 1551 1552 1552 1553 1554 1555 1556
1504 1504 1505 1506 1507 1509 1510 1512 1514 1516 1518 1520 1522 1524 1526 1528 1529 1531 1532 1533 1535 1536 1538 1539 1540 1541 1542 1543 1544 1545 1546 1547 1548 1549 1550 1551 1552 1552 1553 1554 1555 1556 1557
1505 1506 1507 1508 1509 1511 1513 1514 1516 1518 1520 1522 1524 1526 1528 1529 1530 1532 1533 1535 1537 1538 1539 1540 1541 1542 1543 1544 1545 1546 1547 1548 1549 1550 1551 1552 1552 1553 1554 1555 1556 1557 1558
1507 1508 1509 1510 1511 1513 1515 1517 1518 1520 1522 1524 1526 1528 1529 1531 1532 1533 1535 1536 1538 1539 1541 1541 1542 1543 1544 1545 1546 1547 1548 1549 1550 1551 1552 1553 1553 1554 1555 1556 1557 1558 1559
1509 1510 1511 1511 1511 1513 1516 1519 1521 1523 1524 1526 1528 1529 1531 1533 1534 1535 1537 1538 1539 1541 1542 1542 1543 1544 1545 1546 1547 1548 1549 1550 1551 1552 1553 1554 1554 1555 1556 1556 1557 1558 1559
1512 1512 1513 1512 1510 1513 1517 1521 1523 1525 1527 1528 1530 1531 1533 1534 1535 1537 1538 1539 1541 1542 1543 1544 1545 1545 1546 1547 1548 1549 1550 1551 1551 1553 1554 1554 1555 1555 1556 1557 1558 1559 1560
1515 1515 1516 1516 1515 1517 1521 1523 1525 1527 1529 1530 1531 1533 1534 1536 1537 1538 1539 1541 1542 1543 1544 1545 1546 1546 1547 1548 1549 1550 1550 1551 1552 1553 1554 1554 1555 1555 1556 1557 1558 1559 1560
1517 1517 1518 1519 1520 1522 1524 1526 1528 1529 1531 1532 1533 1535 1536 1538 1539 1540 1541 1542 1543 1544 1545 1545 1546 1547 1548 1549 1549 1550 1551 1551 1552 1553 1554 1554 1555 1555 1556 1557 1558 1559 1560
1519 1520 1521 1522 1523 1525 1527 1528 1530 1531 1533 1534 1535 1536 1537 1539 1540 1541 1542 1543 1543 1544 1545 1546 1547 1547 1548 1549 1550 1551 1551 1552 1552 1553 1554 1554 1554 1555 1556 1557 1558 1559 1560
1522 1523 1524 1525 1526 1527 1529 1530 1532 1533 1534 1536 1537 1538 1539 1539 1541 1542 1542 1543 1544 1545 1545 1546 1547 1548 1548 1549 1550 1551 1552 1552 1553 1553 1554 1554 1554 1555 1556 1557 1558 1559 1560
1523 1525 1526 1527 1528 1530 1531 1532 1533 1535 1536 1537 1538 1539 1540 1540 1541 1542 1543 1544 1544 1545 1546 1546 1547 1548 1549 1549 1550 1551 1551 1552 1553 1553 1553 1554 1555 1555 1556 1556 1557 1558 1559
1525 1527 1528 1529 1531 1532 1533 1533 1535 1536 1537 1538 1539 1540 1541 1541 1542 1543 1544 1544 1545 1545 1546 1547 1547 1548 1549 1549 1550 1551 1551 1552 1552 1552 1553 1554 1554 1555 1555 1556 1557 1557 1558
1525 1527 1529 1530 1532 1533 1535 1535 1536 1538 1538 1539 1540 1541 1542 1543 1543 1544 1544 1544 1545 1545 1546 1547 1547 1548 1549 1549 1550 1551 1551 1551 1552 1552 1552 1553 1554 1554 1554 1555 1556 1556 1557
1525 1527 1529 1530 1532 1534 1535 1536 1538 1538 1539 1540 1541 1541 1542 1543 1543 1544 1544 1544 1544 1545 1546 1546 1547 1548 1549 1549 1550 1550 1551 1551 1552 1552 1552 1553 1553 1553 1553 1554 1554 1555 1556
1525 1528 1529 1531 1532 1533 1535 1536 1538 1539 1540 1540 1540 1541 1542 1543 1543 1543 1544 1544 1544 1545 1545 1546 1547 1548 1548 1549 1549 1550 1550 1551 1550 1551 1551 1552 1552 1553 1553 1553 1553 1554 1555
1525 1527 1529 1530 1531 1533 1535 1536 1538 1539 1540 1540 1541 1541 1541 1542 1542 1543 1543 1543 1544 1544 1545 1545 1546 1547 1547 1548 1548 1549 1549 1550 1550 1550 1550 1551 1551 1552 1552 1552 1552 1553 1553
1525 1527 1529 1530 1531 1533 1534 1536 1537 1538 1539 1540 1540 1540 1541 1541 1541 1542 1542 1542 1543 1544 1544 1545 1546 1546 1546 1547 1547 1548 1548 1549 1549 1549 1549 1550 1550 1550 1550 1551 1551 1551 1552
1524 1526 1528 1531 1531 1532 1534 1535 1537 1538 1539 1539 1539 1539 1539 1540 1540 1541 1541 1542 1542 1543 1543 1544 1544 1545 1545 1546 1546 1547 1547 1548 1548 1548 1549 1549 1549 1549 1549 1549 1550 1550 1550
1524 1525 1527 1529 1531 1532 1533 1535 1536 1537 1537 1538 1538 1538 1538 1539 1539 1540 1540 1541 1541 1542 1542 1543 1543 1544 1544 1544 1545 1545 1546 1546 1547 1548 1548 1548 1548 1548 1548 1548 1548 1549 1549
1522 1524 1526 1528 1530 1531 1532 1534 1535 1536 1536 1537 1537 1537 1537 1538 1539 1539 1539 1540 1541 1541 1541 1542 1542 1543 1543 1543 1544 1544 1545 1545 1545 1546 1547 1547 1547 1547 1547 1547 1547 1547 1547
1521 1523 1525 1527 1528 1529 1531 1532 1533 1534 1535 1536 1536 1536 1537 1537 1538 1538 1539 1539 1540 1540 1541 1541 1541 1542 1542 1543 1543 1543 1543 1544 1544 1544 1545 1545 1546 1546 1546 1545 1545 1545 1545
1519 1521 1523 1525 1526 1528 1530 1531 1532 1533 1534 1535 1535 1535 1535 1536 1537 1538 1538 1538 1539 1539 1540 1540 1540 1541 1541 1542 1542 1542 1542 1543 1542 1543 1543 1543 1544 1545 1545 1544 1544 1544 1544
1517 1519 1521 1522 1524 1526 1528 1530 1531 1532 1533 1534 1534 1534 1535 1535 1536 1536 1537 1537 1538 1538 1539 1539 1539 1540 1540 1541 1541 1542 1541 1541 1541 1542 1542 1542 1543 1543 1543 1543 1543 1542 1542
1515 1517 1519 1521 1522 1524 1526 1528 1529 1531 1531 1532 1533 1533 1534 1534 1535 1535 1535 1536 1537 1537 1537 1538 1538 1539 1539 1539 1539 1540 1540 1540 1540 1540 1541 1541 1541 1541 1541 1541 1541 1540 1540
1513 1515 1516 1518 1520 1522 1524 1525 1527 1529 1530 1531 1531 1532 1532 1533 1533 1534 1534 1534 1535 1535 1536 1536 1537 1537 1537 1537 1537 1538 1538 1538 1539 1539 1539 1539 1539 1539 1539 1539 1539 1539 1538
1510 1513 1514 1515 1518 1519 1521 1523 1525 1526 1528 1529 1529 1530 1531 1531 1532 1532 1532 1532 1533 1533 1534 1534 1535 1535 1535 1535 1535 1536 1536 1536 1536 1537 1537 1537 1537 1537 1537 1536 1537 1537 1537